Regional Weather Roundup
Issued by NWS

Home | Current Version | Previous Version | Text Only | Print | Product List | Glossary Off
Versions: 1 2 3 4 5 6 7 8 9 10 11 12 13 14 15 16 17 18 19 20 21 22 23 24 25 26 27 28 29 30 31 32 33 34 35 36 37 38 39 40 41 42 43 44 45 46 47 48 49 50

000
ASUS43 KOAX 250702
RWRNE

WEATHER ROUNDUP FOR NEBRASKA
NATIONAL WEATHER SERVICE OMAHA NE
100 AM CST SAT FEB 25 2017

NOTES: SATELLITE DATA IS BEING USED TO AUGMENT CLOUD COVER ABOVE
       12000 FEET.
       "FAIR" INDICATES FEW OR NO CLOUDS BELOW 12,000 FEET WITH NO
       SIGNIFICANT WEATHER AND/OR OBSTRUCTIONS TO VISIBILITY.

  * THESE STATIONS DO NOT REPORT WEATHER SUCH AS RAIN...SNOW OR FOG.

NEZ001>004-019>022-054>056-250800-
NEBRASKA PANHANDLE

CITY           SKY/WX    TMP DP  RH WIND       PRES   REMARKS
SCOTTSBLUFF    CLOUDY    10   7  87 CALM      30.03S FOG
ALLIANCE       FOG       -2  -6  83 CALM      30.02F VSB 1/4
CHADRON        CLOUDY     3  -1  83 CALM      30.04F
KIMBALL        CLOUDY     8   7  93 W9        30.00F WCI  -5
SIDNEY         CLOUDY     6   3  87 SW10      30.03F WCI  -9
$$

NEZ057>060-069>072-079>082-250800-
SOUTHWEST NEBRASKA

CITY           SKY/WX    TMP DP  RH WIND       PRES   REMARKS
NORTH PLATTE   CLOUDY    10   5  80 NW7       30.13F WCI  -1
IMPERIAL       CLOUDY    13  10  88 W5        30.12F WCI   5
LEXINGTON      CLOUDY    16  10  76 NW14      30.15S WCI   2
MCCOOK         CLEAR     14   9  80 W9        30.17S WCI   2
OGALLALA       CLOUDY     7   4  87 W7        30.11S WCI  -5
$$

NEZ005>010-023>029-035>040-094-250800-
NORTH CENTRAL NEBRASKA

CITY           SKY/WX    TMP DP  RH WIND       PRES   REMARKS
VALENTINE      CLOUDY    -1  -5  82 W6        30.10F WCI -13
AINSWORTH      CLOUDY     7   4  88 W8        30.10S WCI  -5
BROKEN BOW     CLOUDY    13   8  81 NW10      30.11S WCI   0
O`NEILL        CLOUDY    15  10  80 NW7       30.11F WCI   5
ORD            CLEAR      9   5  84 NW3       30.12R
THEDFORD       CLOUDY     7   4  89 CALM      30.11S
$$

NEZ041-046>049-061>064-073>077-083>087-250800-
SOUTH CENTRAL NEBRASKA

CITY           SKY/WX    TMP DP  RH WIND       PRES   REMARKS
GRAND ISLAND   CLEAR     17  12  80 NW12      30.12S WCI   4
AURORA         CLEAR     18  12  79 NW10      30.11S WCI   6
HASTINGS       CLEAR     17  10  74 NW9       30.13S WCI   6
HEBRON         CLEAR     20  14  77 NW9       30.13S WCI  10
HOLDREGE       CLOUDY    15  10  81 W9        30.14R WCI   3
KEARNEY *      CLOUDY    16   7  67 NW8       30.13S WCI   5
YORK           CLEAR     19  14  79 NW10      30.10S WCI   8
$$

NEZ011>018-030>034-042>045-250800-
NORTHEAST NEBRASKA

CITY           SKY/WX    TMP DP  RH WIND       PRES   REMARKS
NORFOLK        CLOUDY    19  11  70 NW14      30.10R WCI   6
ALBION         CLOUDY    18  10  69 NW9       30.11S WCI   7
BLAIR          PTCLDY    19  15  81 NW8       30.06R WCI   9
FREMONT        CLEAR     21  16  80 NW14      30.10R WCI   8
TEKAMAH        CLEAR     19  12  74 NW9       30.09R WCI   8
WAYNE          CLOUDY    19  14  81 NW13      30.10R WCI   6
$$

NEZ050>053-065>068-078-088>093-250800-
SOUTHEAST NEBRASKA

CITY           SKY/WX    TMP DP  RH WIND       PRES   REMARKS
LINCOLN        CLEAR     25  16  68 N17       30.11S WCI  12
OMAHA EPPLEY   PTCLDY    22  13  68 NW16      30.08R WCI   8
BEATRICE       CLEAR     22  17  78 NW9       30.10S WCI  12
FALLS CITY     PTCLDY    24  18  77 NW14      30.08R WCI  12
NEBRASKA CITY  CLEAR     23  15  72 NW16      30.08R WCI  10
PLATTSMOUTH    PTCLDY    24  14  66 NW13G23   30.07R WCI  12
$$

NEZ044-045-051>053-067-250800-
OMAHA AREA

CITY           SKY/WX    TMP DP  RH WIND       PRES   REMARKS
OMAHA EPPLEY   PTCLDY    22  13  68 NW16      30.08R WCI   8
BLAIR          PTCLDY    19  15  81 NW8       30.06R WCI   9
FREMONT        CLEAR     21  16  80 NW14      30.10R WCI   8
MILLARD        CLEAR     26  17  71 NW13G20   30.10R WCI  14
OFFUTT AFB     CLEAR     22  14  70 NW13      30.08R WCI  10
PLATTSMOUTH    PTCLDY    24  14  66 NW13G23   30.07R WCI  12
WAHOO          FAIR      22  15  74 NW16      30.09S WCI   9
$$



USA.gov is the U.S. government's official web portal to all federal, state and local government web resources and services.